Flag for Canada Weather past 2 weeks in Waterloo, Ontario, Canada

Now
37 °F

Overcast.


Feels Like: 27 °F
Forecast: 26 / 40 °F
Wind: 21 mph from Northwest

Location: Waterloo Well

Current Time: Dec 28, 2014 at 3:45:46 AM

Latest Report: Dec 28, 2014 at 3:00 AM


Visibility: 9 mi

Pressure: 29.90 "Hg

Humidity: 81%

Dew point: 32 °F

Location of WaterlooLocation

Historic Weather in Waterloo — Graph

°F

Waterloo temperature yesterday

Maximum temperature yesterday: 48 °F (at 2:57 PM)
Minimum temperature yesterday: 32 °F (at 12:00 AM)
Average temperature yesterday: 41 °F

Past Weeks' High & Low Weather Summary

 TemperatureHumidityPressure
High50 °F (Dec 24, 10:00 PM)100% (Dec 13, 5:00 AM)30.34 "Hg (Dec 13, 5:00 AM)
Low16 °F (Dec 20, 7:00 AM)64% (Dec 20, 1:00 PM)29.17 "Hg (Dec 24, 8:56 PM)
Average34 °F91%29.99 "Hg
* Reported Dec 13 2:04 AM — Dec 28 2:00 AM, Waterloo, Weather by CustomWeather, © 2014

Note: Actual official high and low records may vary slightly from our data, if they occured in-between our weather recording intervals... More about our weather records

Advertising

Waterloo weather history for previous 24 hours

 ConditionsComfort  
Time TempWeatherWind HumidityBarometerVisibility
2:00 AM
Dec 28
37 °FOvercast.15 mph87%29.89 "Hg9 mi
1:00 AM37 °FMostly cloudy.15 mph87%29.89 "Hg9 mi
12:52 AM37 °FMostly cloudy.16 mph87%29.89 "Hg9 mi
12:00 AM37 °FLight rain. Mostly cloudy.20 mph87%29.89 "Hg9 mi
11:58 PM
Dec 27
39 °FLight rain. Mostly cloudy.21 mph81%29.89 "Hg9 mi
11:00 PM41 °FLight rain. Mostly cloudy.23 mph87%29.90 "Hg9 mi
10:00 PM46 °FOvercast.14 mph87%29.86 "Hg9 mi
9:02 PM45 °FLow clouds.15 mph93%29.88 "Hg9 mi
8:00 PM45 °FLight rain. Fog.16 mph93%29.89 "Hg4 mi
7:51 PM45 °FLight rain. Fog.21 mph93%29.91 "Hg5 mi
7:00 PM45 °FOvercast.17 mph87%29.91 "Hg9 mi
6:00 PM46 °FOvercast.15 mph82%29.92 "Hg9 mi
5:00 PM46 °FOvercast.15 mph76%29.93 "Hg9 mi
4:00 PM45 °FOvercast.23 mph81%29.93 "Hg9 mi
3:00 PM48 °FMostly cloudy.17 mph71%29.93 "Hg9 mi
2:57 PM48 °FMostly cloudy.18 mph71%29.92 "Hg9 mi
2:00 PM46 °FMostly cloudy.14 mph87%29.95 "Hg9 mi
1:00 PM45 °FMostly cloudy.9 mph93%29.98 "Hg9 mi
12:04 PM45 °FFog.10 mph81%30.04 "Hg5 mi
11:03 AM43 °FCloudy.12 mph87%30.09 "Hg9 mi
10:00 AM39 °FOvercast.8 mph93%30.10 "Hg8 mi
9:00 AM39 °FFog.7 mph93%30.11 "Hg6 mi
8:00 AM37 °FFog.6 mph93%30.12 "Hg5 mi
7:00 AM37 °FFog.5 mph93%30.13 "Hg5 mi
6:00 AM37 °FFog.3 mph93%30.11 "Hg5 mi
5:00 AM37 °FFog.2 mph93%30.12 "Hg5 mi
4:00 AM37 °FFog.No wind93%30.13 "Hg5 mi
3:00 AM36 °FFog.2 mph100%30.14 "Hg6 mi
Weather by CustomWeather, © 2014

See weather overviewHow to use our weather pages